Weather History for Andrews, NC

Change the Weather History Date:

Wednesday, December 5, 2012

  Actual Average (KTYS) Record (KTYS)
Temperature  
Mean Temperature 58 °F 43 °F  
Max Temperature 63 °F 53 °F 76 °F (2013)
Min Temperature 54 °F 34 °F 7 °F (1871)
Degree Days  
Heating Degree Days 6 22  
Month to date heating degree days 107  
Since 1 July heating degree days 788  
Cooling Degree Days 0 0  
Month to date cooling degree days 0  
Year to date cooling degree days 1526  
Growing Degree Days 8 (Base 50)    
Moisture  
Dew Point 57 °F    
Average Humidity 98    
Maximum Humidity 100    
Minimum Humidity 88    
Precipitation  
Precipitation 0.09 in 0.16 in 2.84 in (1910)
Month to date precipitation 0.78  
Year to date precipitation 44.14  
Snow  
Snow 0.00 in 0.00 in - ()
Month to date snowfall 0.1  
Since 1 July snowfall 0.1  
Snow Depth -    
Sea Level Pressure  
Sea Level Pressure 30.19 in    
Wind  
Wind Speed 0 mph (West)    
Max Wind Speed 5 mph    
Max Gust Speed -    
Visibility 8 miles    
Events      
T = Trace of Precipitation, MM = Missing Value Source: NWS Daily Summary

Daily Weather History Graph

Daily Weather History Graph

Search for Another Location

Airport:

Trip Planner

Search our weather history database for the weather conditions in past years. The results will help you decide how hot, cold, wet, or windy it might be!

Date:

Astronomy

Dec. 05, 2012 Rise Set
Actual Time 7:29 AM EST 5:23 PM EST
Civil Twilight 7:01 AM EST 5:51 PM EST
Nautical Twilight 6:29 AM EST 6:22 PM EST
Astronomical Twilight 5:59 AM EST 6:53 PM EST
Moon No Moon Rise 12:02 PM EST (12/5)
Length of Visible Light 10h 49m
Length of Day
9h 53m
Waning Gibbous, 60% of the Moon is Illuminated
Dec 5
Waning Gibbous
Dec 6
Last Quarter
Dec 13
New
Dec 20
First Quarter
Dec 28
Full

Hourly Weather History & Observations

Time (EST) Temp. Dew Point Humidity Pressure Visibility Wind Dir Wind Speed Gust Speed Precip Events Conditions
12:15 AM 56.3 °F 54.5 °F 94% 30.21 in 10.0 mi Calm Calm - N/A   Overcast
12:35 AM 55.9 °F 54.7 °F 96% 30.21 in 10.0 mi Calm Calm - N/A   Overcast
12:55 AM 55.6 °F 54.5 °F 96% 30.21 in 10.0 mi Calm Calm - N/A   Mostly Cloudy
1:15 AM 55.8 °F 54.5 °F 96% 30.20 in 10.0 mi Calm Calm - N/A   Mostly Cloudy
1:35 AM 54.3 °F 53.6 °F 97% 30.20 in 10.0 mi Calm Calm - N/A   Overcast
1:55 AM 54.7 °F 54.0 °F 97% 30.20 in 10.0 mi Calm Calm - N/A   Overcast
2:15 AM 55.2 °F 54.1 °F 96% 30.21 in 10.0 mi Calm Calm - N/A   Overcast
2:55 AM 55.8 °F 54.9 °F 97% 30.20 in 7.0 mi Calm Calm - N/A   Overcast
3:15 AM 55.6 °F 55.4 °F 99% 30.20 in 10.0 mi Calm Calm - N/A   Overcast
3:35 AM 55.8 °F 55.4 °F 99% 30.20 in 5.0 mi Calm Calm - N/A   Overcast
3:55 AM 55.6 °F 55.6 °F 100% 30.20 in 7.0 mi Calm Calm - N/A   Overcast
4:15 AM 56.3 °F 56.1 °F 99% 30.20 in 7.0 mi Calm Calm - N/A   Overcast
4:35 AM 56.3 °F 56.1 °F 99% 30.20 in 7.0 mi Calm Calm - N/A   Overcast
4:55 AM 55.8 °F 55.8 °F 100% 30.19 in 3.0 mi Calm Calm - 0.01 in   Overcast
5:15 AM 55.9 °F 55.9 °F 100% 30.19 in 2.5 mi Calm Calm - 0.03 in   Overcast
5:35 AM 56.3 °F 56.3 °F 100% 30.19 in 2.5 mi Calm Calm - 0.05 in   Overcast
5:55 AM 56.3 °F 56.3 °F 100% 30.20 in 3.0 mi Calm Calm - 0.06 in   Overcast
6:15 AM 56.5 °F 56.5 °F 100% 30.20 in 2.5 mi Calm Calm - N/A   Overcast
6:35 AM 56.5 °F 56.5 °F 100% 30.20 in 3.0 mi Calm Calm - N/A   Overcast
6:55 AM 56.5 °F 56.5 °F 100% 30.20 in 2.5 mi Calm Calm - N/A   Overcast
7:15 AM 56.8 °F 56.8 °F 100% 30.21 in 3.0 mi Calm Calm - N/A   Overcast
7:35 AM 56.3 °F 56.3 °F 100% 30.21 in 2.5 mi Calm Calm - N/A   Overcast
7:55 AM 56.5 °F 56.5 °F 100% 30.22 in 1.8 mi Calm Calm - 0.01 in   Overcast
9:35 AM 58.3 °F 58.3 °F 100% 30.24 in 3.0 mi Calm Calm - N/A   Overcast
9:55 AM 59.0 °F 59.0 °F 100% 30.24 in 4.0 mi Calm Calm - N/A   Overcast
10:15 AM 59.0 °F 59.0 °F 100% 30.24 in 3.0 mi Calm Calm - N/A   Overcast
10:35 AM 59.7 °F 59.7 °F 100% 30.24 in 4.0 mi Calm Calm - 0.01 in   Overcast
10:55 AM 61.0 °F 61.0 °F 100% 30.24 in 5.0 mi Calm Calm - 0.01 in   Overcast
11:15 AM 61.7 °F 61.7 °F 100% 30.23 in 7.0 mi Calm Calm - N/A   Overcast
11:35 AM 61.7 °F 61.5 °F 99% 30.23 in 7.0 mi Calm Calm - N/A   Overcast
11:55 AM 62.4 °F 61.7 °F 97% 30.22 in 10.0 mi Calm Calm - N/A   Overcast
12:15 PM 62.8 °F 61.9 °F 97% 30.21 in 10.0 mi Calm Calm - N/A   Overcast
12:35 PM 62.8 °F 61.2 °F 94% 30.20 in 10.0 mi Calm Calm - N/A   Overcast
12:55 PM 63.0 °F 61.3 °F 94% 30.19 in 10.0 mi Calm Calm - N/A   Overcast
1:15 PM 62.6 °F 61.2 °F 95% 30.18 in 2.5 mi Calm Calm - N/A   Overcast
1:35 PM 63.0 °F 61.7 °F 96% 30.17 in 10.0 mi Calm Calm - N/A   Overcast
1:55 PM 63.5 °F 61.2 °F 92% 30.16 in 10.0 mi Calm Calm - N/A   Overcast
2:15 PM 62.8 °F 59.5 °F 89% 30.15 in 10.0 mi Calm Calm - N/A   Overcast
2:35 PM 63.5 °F 59.9 °F 88% 30.15 in 10.0 mi Calm Calm - N/A   Overcast
2:55 PM 63.7 °F 60.3 °F 89% 30.15 in 10.0 mi WSW 3.5 mph - N/A   Overcast
3:15 PM 62.6 °F 61.0 °F 94% 30.15 in 10.0 mi Calm Calm - N/A   Overcast
3:35 PM 62.8 °F 61.0 °F 94% 30.15 in 10.0 mi WSW 3.5 mph - N/A   Overcast
3:55 PM 63.1 °F 60.8 °F 92% 30.15 in 10.0 mi West 4.6 mph - N/A   Overcast
4:15 PM 62.6 °F 60.6 °F 93% 30.15 in 10.0 mi West 3.5 mph - N/A   Overcast
4:35 PM 62.1 °F 60.3 °F 94% 30.15 in 10.0 mi Calm Calm - N/A   Overcast
4:55 PM 60.8 °F 59.2 °F 94% 30.16 in 10.0 mi Calm Calm - N/A   Scattered Clouds
5:15 PM 59.2 °F 58.3 °F 97% 30.16 in 10.0 mi West 4.6 mph - N/A   Mostly Cloudy
5:35 PM 59.0 °F 57.6 °F 95% 30.17 in 10.0 mi West 4.6 mph - N/A   Overcast
5:55 PM 57.4 °F 56.3 °F 96% 30.17 in 10.0 mi West 3.5 mph - N/A   Mostly Cloudy
6:15 PM 55.4 °F 54.7 °F 97% 30.18 in 10.0 mi West 3.5 mph - N/A   Scattered Clouds
6:35 PM 54.5 °F 54.0 °F 98% 30.18 in 10.0 mi WSW 4.6 mph - N/A   Clear
7:15 PM 54.1 °F 54.1 °F 100% 30.18 in 10.0 mi Calm Calm - N/A   Scattered Clouds
7:35 PM 55.4 °F 55.4 °F 100% 30.18 in 10.0 mi Calm Calm - N/A   Mostly Cloudy
7:55 PM 55.4 °F 55.4 °F 100% 30.19 in 10.0 mi Calm Calm - N/A   Overcast
8:15 PM 55.6 °F 55.4 °F 99% 30.19 in 10.0 mi Calm Calm - N/A   Overcast
8:35 PM 55.4 °F 55.4 °F 100% 30.19 in 10.0 mi Calm Calm - N/A   Overcast
8:55 PM 55.0 °F 55.0 °F 100% 30.18 in 10.0 mi Calm Calm - N/A   Overcast
9:15 PM 55.4 °F 54.9 °F 98% 30.18 in 10.0 mi Calm Calm - N/A   Overcast
9:35 PM 55.2 °F 55.2 °F 100% 30.18 in 10.0 mi Calm Calm - N/A   Overcast
9:55 PM 55.2 °F 55.2 °F 100% 30.18 in 10.0 mi Calm Calm - N/A   Overcast
10:15 PM 55.4 °F 55.4 °F 100% 30.18 in 10.0 mi Calm Calm - N/A   Overcast
10:35 PM 55.4 °F 55.4 °F 100% 30.18 in 10.0 mi Calm Calm - N/A   Overcast
10:55 PM 55.0 °F 55.0 °F 100% 30.18 in 10.0 mi Calm Calm - N/A   Overcast
11:15 PM 54.9 °F 54.9 °F 100% 30.18 in 10.0 mi Calm Calm - N/A   Overcast
11:35 PM 54.9 °F 54.9 °F 100% 30.17 in 10.0 mi Calm Calm - N/A   Overcast
11:55 PM 55.4 °F 55.4 °F 100% 30.16 in 10.0 mi Calm Calm - N/A   Overcast